STARLINK-31172

decayed
NORAD ID: 58837 Int'l Des: 2024-017 Owner: SPXS Country: US Constellation: starlink
LEOCIRCULAR
Gruppe

Über STARLINK-31172

Beschreibung wird geladen...

Höhenverlauf

Altitude vs Time

uPlot chart will show altitude changes over time

Zweizeiliger Elementsatz

1 58837U 24017M 25094.79512534 .02085462 45044-2 17506-2 0 9998
2 58837 53.1257 295.3842 0011051 286.3410 88.6664 16.14036955 68777
Epoch: 4. Apr. 2025 • Age: 3945 hours

Aktueller Status

Position data unavailable
Startdatum 24. Jan. 2024
Alter 1.6 years
Verglühungsdatum 5. Apr. 2025
Typ internet

Technische Details

Klassifizierung Payload
Masse 730.00 kg
Trockenmasse 700.00 kg
Gesamtmasse 730.00 kg
Länge 0.30 m
Durchmesser 4.10 m
Spannweite 29.00 m
Form Box + pan
Hersteller SPXS
Bus-Typ Starlink V2M
Phasenstatus Unknown Transfer Status
Besitzer/Staat SPXS/US

Große Konstellationen

Loading constellations...